Nome, AK

8:51 AM AKDT on August 21, 2017 (GMT -0800)
Nome

Weather History for PAOM - March, 2012

Change the Weather History Date:

Tuesday, March 13, 2012

  Actual Average Record
Temperature  
Mean Temperature 4 °F 10 °F  
Max Temperature 10 °F 18 °F 40 °F (1975)
Min Temperature -2 °F - -44 °F (1971)
Degree Days  
Heating Degree Days 61 55  
Month to date heating degree days 933 722  
Since 1 July heating degree days 11335 10004  
Cooling Degree Days 0    
Month to date cooling degree days 0  
Year to date cooling degree days 0  
Moisture  
Dew Point -5 °F    
Average Humidity 0    
Maximum Humidity 0    
Minimum Humidity 0    
Precipitation  
Precipitation T in 0.02 in 0.58 in (1943)
Month to date precipitation 0.19 0.30  
Year to date precipitation 1.43 2.17  
Snow  
Snow T in 0.30 in 8.00 in (1930)
Month to date snowfall 2.7 4.3  
Since 1 July snowfall 69.3 61.0  
Snow Depth 23.00 in    
Sea Level Pressure  
Sea Level Pressure 29.41 in    
Wind  
Wind Speed 14 mph (North)    
Max Wind Speed 23 mph    
Max Gust Speed 29 mph    
Visibility 10 miles    
Events Snow    
T = Trace of Precipitation, MM = Missing Value Source: NWS Daily Summary

Daily Weather History Graph

Daily Weather History Graph

Search for Another Location

Airport or City:

Trip Planner

Search our weather history database for the weather conditions in past years. The results will help you decide how hot, cold, wet, or windy it might be!

Date:

Astronomy

Mar. 13, 2012 Rise Set
Actual Time 9:24 AM AKDT 8:58 PM AKDT
Civil Twilight 8:36 AM AKDT 9:46 PM AKDT
Nautical Twilight 7:39 AM AKDT 10:44 PM AKDT
Astronomical Twilight 6:36 AM AKDT 11:48 PM AKDT
Moon 5:25 AM AKDT (3/13) 10:05 AM AKDT (3/13)
Length of Visible Light 13h 10m
Length of Day
11h 33m
Waning Gibbous, 64% of the Moon is Illuminated
Mar 13
Waning Gibbous
Mar 14
Last Quarter
Mar 22
New
Mar 30
First Quarter
Apr 6
Full

Hourly Weather History & Observations

Time (AKDT) Temp. Windchill Dew Point Humidity Pressure Visibility Wind Dir Wind Speed Gust Speed Precip Events Conditions
12:53 AM 3.9 °F -8.2 °F -8.0 °F 58% 29.62 in 10.0 mi NW 6.9 mph - N/A   Partly Cloudy
1:53 AM 3.9 °F -17.6 °F -7.1 °F 60% 29.61 in 10.0 mi NNE 21.9 mph - N/A   Partly Cloudy
2:53 AM 1.9 °F -17.5 °F -7.1 °F 66% 29.60 in 10.0 mi North 16.1 mph - N/A   Clear
3:53 AM 1.9 °F -18.1 °F -7.1 °F 66% 29.57 in 10.0 mi North 17.3 mph - N/A   Scattered Clouds
4:53 AM 3.9 °F -8.2 °F -7.1 °F 60% 29.55 in 10.0 mi NE 6.9 mph - N/A   Scattered Clouds
5:53 AM 3.9 °F -9.4 °F -7.1 °F 60% 29.52 in 10.0 mi North 8.1 mph - N/A   Scattered Clouds
6:53 AM -0.0 °F -14.2 °F -9.0 °F 66% 29.51 in 10.0 mi North 8.1 mph - N/A   Scattered Clouds
7:53 AM 1.9 °F -12.9 °F -7.1 °F 66% 29.49 in 10.0 mi NNW 9.2 mph - N/A   Clear
8:53 AM 3.0 °F -17.3 °F -5.1 °F 69% 29.45 in 10.0 mi NNE 18.4 mph - N/A   Clear
9:53 AM 3.9 °F -6.9 °F -5.1 °F 66% 29.44 in 10.0 mi Variable 5.8 mph - N/A   Clear
10:53 AM 7.0 °F -4.5 °F -6.0 °F 55% 29.44 in 10.0 mi Variable 6.9 mph - N/A   Partly Cloudy
11:53 AM 6.1 °F -8.7 °F -6.0 °F 58% 29.41 in 10.0 mi NNW 10.4 mph - N/A   Clear
12:53 PM 6.1 °F -10.2 °F -2.9 °F 67% 29.40 in 10.0 mi North 12.7 mph - N/A   Clear
1:53 PM 9.0 °F -9.0 °F -4.0 °F 56% 29.39 in 10.0 mi North 17.3 mph - N/A   Clear
2:53 PM 9.0 °F -10.5 °F -2.0 °F 61% 29.37 in 10.0 mi North 20.7 mph - N/A   Clear
3:53 PM 9.0 °F -9.0 °F -2.0 °F 61% 29.36 in 10.0 mi North 17.3 mph - N/A   Partly Cloudy
4:53 PM 9.0 °F -7.3 °F -2.0 °F 61% 29.35 in 10.0 mi NNW 13.8 mph - N/A   Partly Cloudy
5:53 PM 9.0 °F -7.9 °F -0.9 °F 64% 29.33 in 10.0 mi North 15.0 mph - N/A   Partly Cloudy
6:53 PM 7.0 °F -12.6 °F -2.9 °F 64% 29.32 in 10.0 mi North 19.6 mph - N/A   Scattered Clouds
7:53 PM 8.1 °F -9.0 °F -5.1 °F 55% 29.31 in 10.0 mi North 15.0 mph - N/A   Mostly Cloudy
8:53 PM 7.0 °F -7.5 °F -4.0 °F 61% 29.30 in 10.0 mi NW 10.4 mph - N/A   Mostly Cloudy
9:53 PM 5.0 °F -12.3 °F -2.9 °F 70% 29.29 in 10.0 mi NW 13.8 mph - N/A   Mostly Cloudy
10:27 PM 8.6 °F -9.5 °F -4.0 °F 57% 29.27 in 10.0 mi NNE 17.3 mph 25.3 mph N/A   Mostly Cloudy
10:53 PM 7.0 °F -10.4 °F -2.9 °F 64% 29.28 in 10.0 mi NNE 15.0 mph 25.3 mph 0.00 in Snow Light Snow
11:35 PM 5.0 °F -11.6 °F -4.0 °F 66% 29.28 in 9.0 mi NNE 12.7 mph - 0.00 in Snow Light Snow
11:53 PM 3.9 °F -14.3 °F -4.0 °F 70% 29.29 in 9.0 mi NNE 15.0 mph 19.6 mph 0.00 in Snow Light Snow